Location: Gull Harbor
(47.1000°N, 122.9000°W)
Time: 18:59:52
(UTC-08:00)

ACS3 Solar Sail - Visible Passes

Search period start: 18 February 2026 00:00
Search period end: 28 February 2026 00:00
Orbit: 897 x 968 km, 97.2° (Epoch: 18 February)

Date Brightness Start Highest point End Pass type
(mag) Time Alt. Az. Time Alt. Az. Time Alt. Az.
19 Feb 4.3 02:35:48 10° N 02:36:01 11° N 02:36:01 11° N visible
20 Feb 4.2 02:48:09 10° N 02:48:31 12° N 02:48:31 12° N visible
21 Feb 4.1 03:00:29 10° N 03:00:59 12° N 03:00:59 12° N visible
22 Feb 4.0 03:12:49 10° N 03:13:24 13° N 03:13:24 13° N visible
23 Feb 4.0 03:25:10 10° N 03:25:47 13° N 03:25:47 13° N visible
24 Feb 4.4 01:54:10 10° NNE 01:54:23 11° NNE 01:54:23 11° NNE visible
24 Feb 3.9 03:37:31 10° N 03:38:08 13° NNW 03:38:08 13° NNW visible
25 Feb 4.3 02:06:11 10° NNE 02:06:42 13° NNE 02:06:42 13° NNE visible
25 Feb 3.9 03:49:54 10° NNW 03:50:26 12° NNW 03:50:26 12° NNW visible
26 Feb 4.2 02:18:13 10° NNE 02:18:58 14° NNE 02:18:58 14° NNE visible
26 Feb 3.9 04:02:22 10° NNW 04:02:42 11° NNW 04:02:42 11° NNW visible
27 Feb 4.0 02:30:14 10° N 02:31:12 15° N 02:31:12 15° N visible
